11/07/2024 07:45:00,0.363
11/07/2024 08:00:00,0.362
11/07/2024 08:15:00,0.362
11/07/2024 08:30:00,0.362
11/07/2024 08:45:00,0.362
11/07/2024 09:00:00,0.362
11/07/2024 09:15:00,0.362
11/07/2024 09:30:00,0.362
11/07/2024 09:45:00,0.361
11/07/2024 10:00:00,0.362
11/07/2024 10:15:00,0.361
11/07/2024 10:30:00,0.361
11/07/2024 10:45:00,0.36
11/07/2024 11:00:00,0.36
11/07/2024 11:15:00,0.359
11/07/2024 11:30:00,0.361
11/07/2024 11:45:00,0.36
11/07/2024 12:00:00,0.359
11/07/2024 12:15:00,0.359
11/07/2024 12:30:00,0.358
11/07/2024 12:45:00,0.359
11/07/2024 13:00:00,0.359
11/07/2024 13:15:00,0.358
11/07/2024 13:30:00,0.357
11/07/2024 13:45:00,0.358
11/07/2024 14:00:00,0.357
11/07/2024 14:15:00,0.357
11/07/2024 14:30:00,0.357
11/07/2024 14:45:00,0.358
11/07/2024 15:00:00,0.357
11/07/2024 15:15:00,0.357
11/07/2024 15:30:00,0.357
11/07/2024 15:45:00,0.357
11/07/2024 16:00:00,0.356
11/07/2024 16:15:00,0.356
11/07/2024 16:30:00,0.355
11/07/2024 16:45:00,0.355
11/07/2024 17:00:00,0.355
11/07/2024 17:15:00,0.355
11/07/2024 17:30:00,0.355
11/07/2024 17:45:00,0.355
11/07/2024 18:00:00,0.354
11/07/2024 18:15:00,0.353
11/07/2024 18:30:00,0.353
11/07/2024 18:45:00,0.353
11/07/2024 19:00:00,0.352
11/07/2024 19:15:00,0.353
11/07/2024 19:30:00,0.352
11/07/2024 19:45:00,0.352
11/07/2024 20:00:00,0.352
11/07/2024 20:15:00,0.352
11/07/2024 20:30:00,0.351
11/07/2024 20:45:00,0.351
11/07/2024 21:00:00,0.351
11/07/2024 21:15:00,0.351
11/07/2024 21:30:00,0.351
11/07/2024 21:45:00,0.351
11/07/2024 22:00:00,0.351
11/07/2024 22:15:00,0.351
11/07/2024 22:30:00,0.35
11/07/2024 22:45:00,0.35
11/07/2024 23:00:00,0.35
11/07/2024 23:15:00,0.35
11/07/2024 23:30:00,0.35
11/07/2024 23:45:00,0.35
12/07/2024 00:00:00,0.35
12/07/2024 00:15:00,0.35
12/07/2024 00:30:00,0.35
12/07/2024 00:45:00,0.35
12/07/2024 01:00:00,0.35
12/07/2024 01:15:00,0.35
12/07/2024 01:30:00,0.35
12/07/2024 01:45:00,0.35
12/07/2024 02:00:00,0.349
12/07/2024 02:15:00,0.349
12/07/2024 02:30:00,0.35
12/07/2024 02:45:00,0.349
12/07/2024 03:00:00,0.349
12/07/2024 03:15:00,0.349
12/07/2024 03:30:00,0.349
12/07/2024 03:45:00,0.349
12/07/2024 04:00:00,0.349
12/07/2024 04:15:00,0.349
12/07/2024 04:30:00,0.349
12/07/2024 04:45:00,0.349
12/07/2024 05:00:00,0.349
12/07/2024 05:15:00,0.349
12/07/2024 05:30:00,0.349
12/07/2024 05:45:00,0.348
12/07/2024 06:00:00,0.348
12/07/2024 06:15:00,0.348
12/07/2024 06:30:00,0.348
12/07/2024 06:45:00,0.348
12/07/2024 07:00:00,0.348
12/07/2024 07:15:00,0.348
12/07/2024 07:30:00,0.348
12/07/2024 07:45:00,0.348
12/07/2024 08:00:00,0.348
12/07/2024 08:15:00,0.348
12/07/2024 08:30:00,0.348
12/07/2024 08:45:00,0.348
12/07/2024 09:00:00,0.347
12/07/2024 09:15:00,0.348
12/07/2024 09:30:00,0.348
12/07/2024 09:45:00,0.347
12/07/2024 10:00:00,0.348
12/07/2024 10:15:00,0.348
12/07/2024 10:30:00,0.348
12/07/2024 10:45:00,0.348
12/07/2024 11:00:00,0.348
12/07/2024 11:15:00,0.348
12/07/2024 11:30:00,0.348
12/07/2024 11:45:00,0.348
12/07/2024 12:00:00,0.348
12/07/2024 12:15:00,0.348
12/07/2024 12:30:00,0.348
12/07/2024 12:45:00,0.347
12/07/2024 13:00:00,0.347
12/07/2024 13:15:00,0.347
12/07/2024 13:30:00,0.347
12/07/2024 13:45:00,0.347
12/07/2024 14:00:00,0.347
12/07/2024 14:15:00,0.347
12/07/2024 14:30:00,0.347
12/07/2024 14:45:00,0.347
12/07/2024 15:00:00,0.347
12/07/2024 15:15:00,0.347
12/07/2024 15:30:00,0.347
12/07/2024 15:45:00,0.347
12/07/2024 16:00:00,0.347
12/07/2024 16:15:00,0.346
12/07/2024 16:30:00,0.346
12/07/2024 16:45:00,0.346
12/07/2024 17:00:00,0.346
12/07/2024 17:15:00,0.346
12/07/2024 17:30:00,0.346
12/07/2024 17:45:00,0.346
12/07/2024 18:00:00,0.346
12/07/2024 18:15:00,0.346
12/07/2024 18:30:00,0.346
12/07/2024 18:45:00,0.346
12/07/2024 19:00:00,0.346
12/07/2024 19:15:00,0.345
12/07/2024 19:30:00,0.345
12/07/2024 19:45:00,0.345
12/07/2024 20:00:00,0.345
12/07/2024 20:15:00,0.345
12/07/2024 20:30:00,0.345
12/07/2024 20:45:00,0.345
12/07/2024 21:00:00,0.344
12/07/2024 21:15:00,0.344
12/07/2024 21:30:00,0.344
12/07/2024 21:45:00,0.344
12/07/2024 22:00:00,0.344
12/07/2024 22:15:00,0.344
12/07/2024 22:30:00,0.344
12/07/2024 22:45:00,0.344
12/07/2024 23:00:00,0.343
12/07/2024 23:15:00,0.343
12/07/2024 23:30:00,0.343
12/07/2024 23:45:00,0.343
13/07/2024 00:00:00,0.343
13/07/2024 00:15:00,0.343
13/07/2024 00:30:00,0.343
13/07/2024 00:45:00,0.342
13/07/2024 01:00:00,0.342
13/07/2024 01:15:00,0.342
13/07/2024 01:30:00,0.342
13/07/2024 01:45:00,0.343
13/07/2024 02:00:00,0.343
13/07/2024 02:15:00,0.342
13/07/2024 02:30:00,0.343
13/07/2024 02:45:00,0.343
13/07/2024 03:00:00,0.343
13/07/2024 03:15:00,0.343
13/07/2024 03:30:00,0.343
13/07/2024 03:45:00,0.342
13/07/2024 04:00:00,0.342
13/07/2024 04:15:00,0.342
13/07/2024 04:30:00,0.342
13/07/2024 04:45:00,0.342
13/07/2024 05:00:00,0.342
13/07/2024 05:15:00,0.342
13/07/2024 05:30:00,0.342
13/07/2024 05:45:00,0.342
13/07/2024 06:00:00,0.342
13/07/2024 06:15:00,0.342
13/07/2024 06:30:00,0.342
13/07/2024 06:45:00,0.342
13/07/2024 07:00:00,0.342
13/07/2024 07:15:00,0.342
13/07/2024 07:30:00,0.342
13/07/2024 07:45:00,0.342
13/07/2024 08:00:00,0.342
13/07/2024 08:15:00,0.342
13/07/2024 08:30:00,0.342
13/07/2024 08:45:00,0.342
13/07/2024 09:00:00,0.342
13/07/2024 09:15:00,0.342
13/07/2024 09:30:00,0.343
13/07/2024 09:45:00,0.343
13/07/2024 10:00:00,0.343
13/07/2024 10:15:00,0.343
13/07/2024 10:30:00,0.343
13/07/2024 10:45:00,0.343
13/07/2024 11:00:00,0.343
13/07/2024 11:15:00,0.343
13/07/2024 11:30:00,0.344
13/07/2024 11:45:00,0.343
13/07/2024 12:00:00,0.343
13/07/2024 12:15:00,0.344
13/07/2024 12:30:00,0.343
13/07/2024 12:45:00,0.343
13/07/2024 13:00:00,0.344
13/07/2024 13:15:00,0.344
13/07/2024 13:30:00,0.344
13/07/2024 13:45:00,0.344
13/07/2024 14:00:00,0.344
13/07/2024 14:15:00,0.344
13/07/2024 14:30:00,0.343
13/07/2024 14:45:00,0.344
13/07/2024 15:00:00,0.344
13/07/2024 15:15:00,0.344
13/07/2024 15:30:00,0.344
13/07/2024 15:45:00,0.344
13/07/2024 16:00:00,0.344
13/07/2024 16:15:00,0.345
13/07/2024 16:30:00,0.345
13/07/2024 16:45:00,0.345
13/07/2024 17:00:00,0.345
13/07/2024 17:15:00,0.345
13/07/2024 17:30:00,0.346
13/07/2024 17:45:00,0.346
13/07/2024 18:00:00,0.346
13/07/2024 18:15:00,0.346
13/07/2024 18:30:00,0.346
13/07/2024 18:45:00,0.346
13/07/2024 19:00:00,0.346
13/07/2024 19:15:00,0.346
13/07/2024 19:30:00,0.346
13/07/2024 19:45:00,0.346
13/07/2024 20:00:00,0.346
13/07/2024 20:15:00,0.346
13/07/2024 20:30:00,0.346
13/07/2024 20:45:00,0.346
13/07/2024 21:00:00,0.346
13/07/2024 21:15:00,0.346
13/07/2024 21:30:00,0.345
13/07/2024 21:45:00,0.345
13/07/2024 22:00:00,0.345
13/07/2024 22:15:00,0.345
13/07/2024 22:30:00,0.345
13/07/2024 22:45:00,0.345
13/07/2024 23:00:00,0.345
13/07/2024 23:15:00,0.345
13/07/2024 23:30:00,0.344
13/07/2024 23:45:00,0.344
14/07/2024 00:00:00,0.344
14/07/2024 00:15:00,0.344
14/07/2024 00:30:00,0.344
14/07/2024 00:45:00,0.343
14/07/2024 01:00:00,0.343
14/07/2024 01:15:00,0.343
14/07/2024 01:30:00,0.343
14/07/2024 01:45:00,0.343
14/07/2024 02:00:00,0.342
14/07/2024 02:15:00,0.342
14/07/2024 02:30:00,0.342
14/07/2024 02:45:00,0.342
14/07/2024 03:00:00,0.342
14/07/2024 03:15:00,0.342
14/07/2024 03:30:00,0.342
14/07/2024 03:45:00,0.342
14/07/2024 04:00:00,0.341
14/07/2024 04:15:00,0.341
14/07/2024 04:30:00,0.341
14/07/2024 04:45:00,0.341
14/07/2024 05:00:00,0.341
14/07/2024 05:15:00,0.341
14/07/2024 05:30:00,0.341
14/07/2024 05:45:00,0.342
14/07/2024 06:00:00,0.342
14/07/2024 06:15:00,0.342
14/07/2024 06:30:00,0.342
14/07/2024 06:45:00,0.342
14/07/2024 07:00:00,0.342
14/07/2024 07:15:00,0.342
14/07/2024 07:30:00,0.343
14/07/2024 07:45:00,0.343
14/07/2024 08:00:00,0.343
14/07/2024 08:15:00,0.343
14/07/2024 08:30:00,0.344
14/07/2024 08:45:00,0.344
14/07/2024 09:00:00,0.344
14/07/2024 09:15:00,0.344
14/07/2024 09:30:00,0.345
14/07/2024 09:45:00,0.345
14/07/2024 10:00:00,0.346
14/07/2024 10:15:00,0.346
14/07/2024 10:30:00,0.347
14/07/2024 10:45:00,0.347
14/07/2024 11:00:00,0.348
14/07/2024 11:15:00,0.349
14/07/2024 11:30:00,0.35
14/07/2024 11:45:00,0.352
14/07/2024 12:00:00,0.353
14/07/2024 12:15:00,0.354
14/07/2024 12:30:00,0.355
14/07/2024 12:45:00,0.356
14/07/2024 13:00:00,0.357
14/07/2024 13:15:00,0.357
14/07/2024 13:30:00,0.359
14/07/2024 13:45:00,0.359
14/07/2024 14:00:00,0.36
14/07/2024 14:15:00,0.361
14/07/2024 14:30:00,0.362
14/07/2024 14:45:00,0.362
14/07/2024 15:00:00,0.362
14/07/2024 15:15:00,0.363
14/07/2024 15:30:00,0.363
14/07/2024 15:45:00,0.364
14/07/2024 16:00:00,0.364
14/07/2024 16:15:00,0.364
14/07/2024 16:30:00,0.364
14/07/2024 16:45:00,0.364
14/07/2024 17:00:00,0.364
14/07/2024 17:15:00,0.363
14/07/2024 17:30:00,0.363
14/07/2024 17:45:00,0.363
14/07/2024 18:00:00,0.362
14/07/2024 18:15:00,0.362
14/07/2024 18:30:00,0.361
14/07/2024 18:45:00,0.361
14/07/2024 19:00:00,0.36
14/07/2024 19:15:00,0.36
14/07/2024 19:30:00,0.359
14/07/2024 19:45:00,0.359
14/07/2024 20:00:00,0.358
14/07/2024 20:15:00,0.358
14/07/2024 20:30:00,0.357
14/07/2024 20:45:00,0.356
14/07/2024 21:00:00,0.356
14/07/2024 21:15:00,0.355
14/07/2024 21:30:00,0.355
14/07/2024 21:45:00,0.354
14/07/2024 22:00:00,0.354
14/07/2024 22:15:00,0.353
14/07/2024 22:30:00,0.353
14/07/2024 22:45:00,0.352
14/07/2024 23:00:00,0.352
14/07/2024 23:15:00,0.351
14/07/2024 23:30:00,0.351
14/07/2024 23:45:00,0.35
15/07/2024 00:00:00,0.35
15/07/2024 00:15:00,0.35
15/07/2024 00:30:00,0.349
15/07/2024 00:45:00,0.349
15/07/2024 01:00:00,0.348
15/07/2024 01:15:00,0.348
15/07/2024 01:30:00,0.348
15/07/2024 01:45:00,0.347
15/07/2024 02:00:00,0.347
15/07/2024 02:15:00,0.347
15/07/2024 02:30:00,0.346
15/07/2024 02:45:00,0.346
15/07/2024 03:00:00,0.346
15/07/2024 03:15:00,0.346
15/07/2024 03:30:00,0.345
15/07/2024 03:45:00,0.345
15/07/2024 04:00:00,0.345
15/07/2024 04:15:00,0.344
15/07/2024 04:30:00,0.344
15/07/2024 04:45:00,0.344
15/07/2024 05:00:00,0.344
15/07/2024 05:15:00,0.344
15/07/2024 05:30:00,0.344
15/07/2024 05:45:00,0.343
15/07/2024 06:00:00,0.343
15/07/2024 06:15:00,0.343
15/07/2024 06:30:00,0.343
15/07/2024 06:45:00,0.343
15/07/2024 07:00:00,0.343
15/07/2024 07:15:00,0.342
15/07/2024 07:30:00,0.342
15/07/2024 07:45:00,0.342
15/07/2024 08:00:00,0.342
15/07/2024 08:15:00,0.342
15/07/2024 08:30:00,0.342
15/07/2024 08:45:00,0.342
15/07/2024 09:00:00,0.342
15/07/2024 09:15:00,0.342
15/07/2024 09:30:00,0.342
15/07/2024 09:45:00,0.342
15/07/2024 10:00:00,0.342
15/07/2024 10:15:00,0.342
15/07/2024 10:30:00,0.342
15/07/2024 10:45:00,0.341
15/07/2024 11:00:00,0.341
15/07/2024 11:15:00,0.341
15/07/2024 11:30:00,0.341
15/07/2024 11:45:00,0.341
15/07/2024 12:00:00,0.341
15/07/2024 12:15:00,0.341
15/07/2024 12:30:00,0.341
15/07/2024 12:45:00,0.341
15/07/2024 13:00:00,0.341
15/07/2024 13:15:00,0.341
15/07/2024 13:30:00,0.341
15/07/2024 13:45:00,0.341
15/07/2024 14:00:00,0.341
15/07/2024 14:15:00,0.341
15/07/2024 14:30:00,0.34
15/07/2024 14:45:00,0.34
15/07/2024 15:00:00,0.341
15/07/2024 15:15:00,0.34
15/07/2024 15:30:00,0.341
15/07/2024 15:45:00,0.341
15/07/2024 16:00:00,0.341
15/07/2024 16:15:00,0.342
15/07/2024 16:30:00,0.342
15/07/2024 16:45:00,0.342
15/07/2024 17:00:00,0.341
15/07/2024 17:15:00,0.341
15/07/2024 17:30:00,0.341
15/07/2024 17:45:00,0.34
15/07/2024 18:00:00,0.34
15/07/2024 18:15:00,0.34
15/07/2024 18:30:00,0.34
15/07/2024 18:45:00,0.34
15/07/2024 19:00:00,0.339
15/07/2024 19:15:00,0.34
15/07/2024 19:30:00,0.339
15/07/2024 19:45:00,0.339
15/07/2024 20:00:00,0.339
15/07/2024 20:15:00,0.338
15/07/2024 20:30:00,0.339
15/07/2024 20:45:00,0.339
15/07/2024 21:00:00,0.338
15/07/2024 21:15:00,0.338
15/07/2024 21:30:00,0.338
15/07/2024 21:45:00,0.338
15/07/2024 22:00:00,0.338
15/07/2024 22:15:00,0.338
15/07/2024 22:30:00,0.337
15/07/2024 22:45:00,0.337
15/07/2024 23:00:00,0.337
15/07/2024 23:15:00,0.336
15/07/2024 23:30:00,0.336
15/07/2024 23:45:00,0.336
16/07/2024 00:00:00,0.335
16/07/2024 00:15:00,0.335
16/07/2024 00:30:00,0.335
16/07/2024 00:45:00,0.335
16/07/2024 01:00:00,0.334
16/07/2024 01:15:00,0.334
16/07/2024 01:30:00,0.334
16/07/2024 01:45:00,0.334
16/07/2024 02:00:00,0.334
16/07/2024 02:15:00,0.334
16/07/2024 02:30:00,0.333
16/07/2024 02:45:00,0.333
16/07/2024 03:00:00,0.333
16/07/2024 03:15:00,0.333
16/07/2024 03:30:00,0.332
16/07/2024 03:45:00,0.332
16/07/2024 04:00:00,0.332
16/07/2024 04:15:00,0.332
16/07/2024 04:30:00,0.332
16/07/2024 04:45:00,0.332
16/07/2024 05:00:00,0.331
16/07/2024 05:15:00,0.331
16/07/2024 05:30:00,0.331
16/07/2024 05:45:00,0.331
16/07/2024 06:00:00,0.331
